Temp
-14 -14 -15 -14 -15 -15 -15 -14 -14 -14 -14 -14 -14 -14 -14 -14 -15 -15 -15 -16 -16 -16 -16 -16 -16 -16 -15 -15 -15 -16 -15 -15 -15 -15 -15 -15 -15 -15 -15 -15 -15 -15 -15 -15
-15 -15 -15 -15 -15 -15 -15 -15 -15 -15 -15 -15 -15 -15 -15 -15 -15 -16 -16 -16 -17 -17 -17 -16 -16 -16 -16 -16 -16 -16 -16 -16 -16 -15 -15 -15 -15 -15 -15 -16 -16 -15 -15 -15
-15 -15 -16 -16 -16 -16 -16 -15 -15 -15 -15 -15 -15 -15 -15 -16 -16 -17 -17 -17 -17 -17 -17 -17 -17 -17 -17 -17 -16 -16 -16 -16 -16 -16 -16 -16 -16 -16 -16 -16 -16 -16 -16 -16
-15 -15 -16 -16 -16 -16 -16 -16 -16 -15 -15 -15 -16 -15 -16 -16 -17 -17 -17 -18 -18 -18 -18 -19 -18 -18 -18 -18 -17 -17 -17 -17 -17 -17 -16 -16 -16 -16 -16 -16 -16 -16 -16 -16
-16 -16 -16 -16 -17 -17 -16 -16 -16 -16 -16 -16 -17 -17 -16 -17 -17 -18 -18 -18 -18 -19 -19 -19 -19 -19 -18 -18 -18 -18 -18 -18 -17 -17 -16 -16 -16 -16 -16 -16 -16 -16 -16 -16
-16 -16 -16 -17 -17 -17 -17 -17 -17 -16 -16 -16 -17 -17 -17 -18 -18 -18 -18 -18 -18 -18 -19 -20 -20 -20 -19 -19 -19 -19 -19 -18 -18 -17 -17 -17 -17 -17 -16 -16 -16 -17 -17 -17
-17 -17 -17 -17 -17 -17 -17 -17 -17 -17 -17 -17 -17 -17 -18 -18 -18 -18 -18 -19 -19 -19 -19 -19 -20 -20 -20 -19 -20 -19 -19 -18 -17 -17 -17 -17 -16 -17 -17 -17 -17 -17 -17 -17
-17 -17 -18 -18 -18 -18 -18 -18 -18 -18 -17 -17 -17 -18 -18 -18 -18 -18 -19 -19 -20 -20 -20 -20 -20 -20 -20 -20 -19 -19 -19 -18 -18 -17 -17 -17 -17 -17 -17 -17 -18 -18 -17 -17
-17 -17 -18 -18 -18 -18 -18 -18 -18 -18 -18 -17 -18 -18 -18 -18 -18 -18 -19 -20 -21 -21 -20 -20 -20 -20 -20 -19 -19 -19 -18 -18 -18 -17 -17 -17 -17 -17 -17 -18 -18 -17 -17 -17
-18 -18 -18 -18 -18 -18 -19 -19 -19 -19 -18 -18 -18 -18 -19 -18 -18 -19 -20 -20 -21 -21 -21 -20 -20 -20 -20 -19 -19 -18 -18 -18 -18 -18 -18 -18 -18 -18 -18 -18 -17 -17 -17 -17
-18 -18 -18 -19 -19 -19 -19 -19 -19 -19 -18 -18 -18 -18 -19 -19 -19 -19 -20 -20 -21 -20 -20 -20 -20 -20 -19 -19 -19 -19 -18 -18 -18 -18 -18 -18 -18 -18 -18 -18 -18 -18 -18 -18
-19 -18 -19 -19 -19 -19 -19 -19 -19 -19 -18 -19 -19 -18 -19 -19 -19 -19 -20 -20 -20 -20 -20 -20 -20 -20 -20 -19 -19 -19 -19 -19 -19 -19 -19 -18 -18 -18 -18 -18 -18 -18 -18 -18
-20 -19 -20 -20 -20 -20 -19 -20 -19 -19 -19 -19 -19 -19 -19 -19 -19 -19 -20 -20 -20 -20 -20 -19 -20 -20 -20 -19 -19 -19 -19 -19 -19 -19 -19 -19 -19 -19 -18 -18 -18 -18 -18 -18
-21 -20 -20 -20 -20 -20 -20 -20 -19 -19 -19 -19 -19 -19 -19 -18 -18 -19 -20 -20 -20 -20 -20 -20 -20 -20 -20 -19 -19 -19 -19 -19 -19 -19 -19 -19 -19 -18 -18 -18 -18 -18 -18 -18
-21 -21 -21 -21 -20 -20 -20 -20 -20 -19 -19 -19 -19 -19 -19 -18 -19 -19 -19 -19 -20 -20 -20 -20 -19 -19 -19 -19 -19 -19 -19 -19 -19 -19 -19 -19 -18 -18 -18 -18 -18 -18 -18 -18
-22 -21 -22 -21 -21 -20 -20 -20 -20 -20 -20 -19 -19 -19 -18 -18 -19 -19 -19 -19 -20 -20 -20 -20 -20 -20 -19 -19 -19 -19 -19 -19 -19 -19 -19 -19 -19 -18 -18 -18 -18 -18 -18 -18
-22 -22 -22 -21 -21 -20 -20 -21 -20 -20 -20 -19 -19 -19 -19 -19 -19 -19 -20 -19 -20 -20 -20 -20 -20 -20 -20 -20 -20 -19 -19 -19 -19 -19 -19 -19 -19 -19 -18 -18 -18 -18 -18 -18
-22 -22 -22 -21 -21 -21 -21 -21 -21 -20 -20 -20 -20 -19 -19 -19 -19 -20 -20 -20 -20 -20 -20 -20 -21 -20 -20 -20 -20 -20 -20 -20 -19 -19 -19 -19 -19 -19 -19 -18 -18 -18 -18 -18
-22 -22 -22 -21 -21 -21 -21 -21 -21 -21 -21 -20 -20 -20 -20 -19 -19 -19 -20 -20 -20 -20 -20 -20 -20 -21 -21 -20 -20 -20 -20 -20 -20 -19 -20 -19 -19 -19 -19 -19 -19 -18 -18 -18
-22 -22 -22 -22 -22 -21 -21 -21 -21 -21 -21 -21 -21 -20 -20 -20 -20 -20 -20 -21 -20 -20 -21 -21 -21 -21 -21 -21 -20 -20 -20 -20 -20 -20 -20 -20 -19 -19 -19 -19 -19 -19 -18 -18
-22 -22 -22 -22 -22 -21 -22 -22 -22 -21 -21 -21 -21 -21 -21 -21 -21 -21 -21 -21 -21 -21 -21 -21 -21 -21 -21 -21 -20 -20 -20 -20 -20 -20 -20 -19 -19 -19 -19 -19 -19 -18 -18 -18
-23 -23 -23 -22 -22 -22 -22 -22 -22 -22 -22 -22 -22 -21 -21 -21 -21 -21 -21 -21 -21 -21 -21 -21 -21 -21 -21 -21 -20 -20 -20 -20 -20 -20 -19 -19 -19 -19 -19 -19 -19 -18 -18 -18
-23 -23 -23 -23 -23 -23 -23 -23 -23 -22 -22 -22 -22 -22 -22 -22 -22 -22 -22 -22 -22 -22 -21 -21 -21 -21 -21 -21 -20 -20 -20 -20 -20 -20 -19 -19 -19 -19 -19 -19 -19 -18 -18 -18
-24 -23 -23 -23 -23 -23 -23 -23 -23 -23 -23 -23 -23 -23 -23 -23 -22 -22 -22 -22 -22 -22 -22 -22 -21 -21 -21 -21 -21 -21 -20 -20 -20 -20 -20 -19 -19 -19 -19 -19 -19 -18 -18 -18
-24 -24 -24 -23 -24 -24 -24 -24 -23 -23 -23 -23 -23 -23 -24 -24 -23 -23 -23 -23 -23 -22 -22 -22 -22 -22 -22 -21 -21 -21 -20 -20 -20 -20 -20 -20 -20 -19 -19 -19 -19 -19 -19 -18
-25 -24 -24 -24 -24 -24 -24 -24 -24 -24 -24 -24 -24 -24 -24 -24 -24 -24 -24 -24 -24 -23 -23 -23 -23 -22 -22 -22 -22 -22 -22 -21 -21 -21 -21 -21 -21 -20 -20 -20 -20 -20 -20 -20
Height
5702 5703 5703 5704 5704 5703 5703 5703 5703 5701 5701 5701 5699 5700 5694 5690 5687 5682 5679 5677 5674 5673 5672 5671 5671 5670 5669 5669 5670 5670 5671 5671 5672 5674 5674 5675 5675 5675 5675 5675 5675 5674 5674 5673
5693 5693 5694 5694 5695 5695 5694 5694 5694 5693 5692 5691 5691 5689 5684 5679 5675 5670 5666 5663 5658 5656 5656 5656 5655 5656 5655 5655 5656 5657 5658 5660 5661 5662 5663 5663 5664 5664 5665 5665 5665 5664 5664 5663
5683 5685 5685 5685 5685 5685 5685 5685 5685 5685 5683 5681 5679 5677 5671 5668 5664 5658 5653 5650 5647 5644 5643 5642 5642 5641 5642 5642 5642 5644 5646 5647 5649 5651 5652 5653 5654 5654 5655 5655 5656 5655 5654 5653
5673 5674 5675 5675 5676 5677 5676 5676 5676 5675 5674 5671 5668 5665 5659 5657 5653 5647 5643 5640 5637 5634 5632 5632 5631 5629 5629 5629 5630 5631 5634 5636 5639 5641 5642 5643 5645 5646 5647 5648 5648 5647 5645 5642
5663 5664 5664 5665 5668 5667 5669 5667 5667 5665 5664 5662 5658 5654 5648 5647 5644 5640 5636 5632 5629 5625 5622 5621 5620 5620 5619 5618 5619 5621 5623 5626 5629 5632 5633 5635 5637 5638 5640 5640 5639 5636 5634 5631
5652 5654 5655 5657 5658 5659 5659 5658 5658 5656 5653 5652 5649 5646 5642 5637 5636 5632 5627 5622 5617 5614 5612 5611 5611 5611 5610 5609 5610 5613 5615 5618 5621 5624 5626 5628 5630 5632 5632 5631 5629 5627 5624 5621
5642 5644 5646 5649 5650 5651 5650 5650 5649 5647 5644 5643 5640 5637 5636 5629 5626 5621 5615 5609 5606 5604 5603 5603 5603 5602 5602 5602 5603 5606 5608 5611 5614 5617 5619 5621 5623 5623 5623 5622 5620 5618 5616 5613
5633 5637 5638 5641 5642 5642 5642 5642 5641 5637 5636 5635 5632 5628 5627 5622 5617 5611 5605 5599 5597 5596 5596 5596 5595 5596 5595 5595 5597 5599 5602 5605 5608 5611 5613 5615 5615 5616 5615 5614 5613 5610 5609 5606
5626 5628 5629 5631 5632 5634 5634 5633 5633 5630 5629 5627 5625 5622 5619 5614 5609 5603 5597 5593 5591 5590 5590 5590 5590 5590 5591 5592 5594 5596 5597 5600 5603 5605 5607 5608 5610 5609 5609 5608 5605 5604 5602 5599
5617 5619 5622 5622 5624 5625 5625 5626 5625 5623 5620 5619 5617 5614 5612 5608 5602 5597 5593 5590 5588 5587 5587 5586 5587 5587 5588 5589 5590 5591 5594 5596 5599 5601 5603 5604 5604 5604 5603 5601 5599 5598 5595 5592
5608 5610 5614 5615 5615 5616 5617 5617 5616 5614 5613 5611 5609 5608 5604 5601 5596 5592 5589 5586 5584 5584 5584 5584 5584 5585 5585 5585 5586 5589 5591 5593 5596 5597 5598 5599 5599 5598 5597 5595 5594 5592 5589 5586
5598 5599 5602 5605 5606 5608 5609 5609 5607 5606 5607 5605 5602 5602 5597 5594 5590 5586 5584 5583 5582 5581 5581 5581 5582 5582 5583 5583 5585 5587 5589 5591 5592 5593 5594 5594 5594 5593 5592 5590 5588 5586 5583 5579
5587 5590 5595 5597 5600 5600 5600 5600 5599 5599 5599 5600 5595 5596 5590 5588 5584 5581 5579 5579 5578 5578 5578 5579 5579 5580 5581 5581 5583 5585 5587 5588 5589 5589 5590 5590 5589 5588 5586 5584 5583 5580 5577 5574
5578 5582 5586 5589 5591 5592 5592 5592 5592 5592 5592 5590 5591 5587 5582 5581 5578 5575 5574 5575 5575 5575 5575 5576 5576 5576 5578 5579 5581 5582 5583 5584 5585 5585 5586 5585 5585 5583 5581 5580 5577 5575 5571 5567
5571 5575 5578 5580 5581 5582 5583 5584 5584 5585 5584 5582 5583 5581 5576 5574 5572 5569 5569 5570 5571 5571 5572 5572 5573 5573 5574 5576 5578 5579 5580 5580 5581 5581 5581 5580 5579 5577 5575 5574 5571 5568 5564 5560
5564 5567 5570 5572 5572 5573 5575 5576 5577 5577 5576 5574 5574 5574 5570 5568 5566 5563 5563 5564 5566 5567 5567 5568 5570 5570 5571 5573 5574 5574 5575 5576 5576 5575 5575 5574 5573 5571 5570 5568 5565 5562 5558 5554
5555 5558 5562 5564 5564 5563 5564 5569 5569 5568 5567 5567 5566 5565 5563 5562 5560 5559 5557 5558 5560 5561 5562 5564 5565 5566 5567 5568 5569 5570 5570 5570 5570 5570 5569 5568 5567 5565 5563 5561 5558 5555 5552 5548
5548 5551 5552 5554 5556 5554 5558 5560 5561 5560 5558 5558 5558 5556 5556 5554 5554 5553 5552 5552 5554 5555 5555 5558 5559 5560 5561 5563 5564 5564 5564 5565 5564 5564 5563 5562 5560 5559 5557 5554 5551 5549 5545 5541
5540 5542 5544 5544 5547 5548 5549 5551 5551 5550 5551 5550 5549 5548 5548 5547 5546 5546 5545 5546 5547 5548 5549 5551 5552 5553 5555 5557 5557 5557 5557 5557 5557 5557 5556 5554 5553 5551 5550 5547 5544 5541 5537 5533
5531 5533 5535 5536 5537 5539 5540 5542 5541 5542 5543 5541 5541 5540 5539 5539 5539 5538 5538 5538 5539 5540 5542 5543 5545 5545 5547 5548 5550 5549 5549 5549 5549 5549 5548 5546 5544 5542 5541 5538 5535 5532 5529 5525
5522 5524 5525 5526 5527 5530 5532 5531 5532 5534 5536 5532 5532 5531 5531 5531 5532 5530 5529 5529 5530 5531 5532 5534 5535 5536 5538 5539 5540 5541 5541 5540 5540 5539 5538 5537 5535 5533 5531 5529 5525 5522 5519 5515
5514 5515 5516 5517 5518 5522 5522 5522 5524 5524 5523 5523 5523 5523 5523 5522 5522 5523 5522 5521 5521 5522 5522 5523 5525 5526 5528 5530 5531 5531 5531 5530 5530 5529 5527 5526 5525 5522 5520 5517 5514 5511 5508 5504
5505 5506 5507 5510 5511 5511 5511 5513 5513 5514 5514 5514 5515 5515 5514 5514 5514 5514 5513 5513 5512 5512 5513 5514 5515 5516 5517 5518 5520 5520 5520 5519 5518 5518 5516 5514 5513 5511 5508 5505 5502 5499 5496 5492
5496 5497 5500 5501 5502 5502 5503 5504 5504 5504 5505 5505 5506 5506 5506 5506 5506 5505 5505 5505 5505 5504 5504 5504 5505 5505 5505 5506 5507 5508 5507 5506 5506 5505 5504 5501 5500 5497 5495 5492 5489 5486 5482 5478
5488 5490 5491 5492 5493 5494 5495 5495 5495 5496 5496 5497 5497 5498 5498 5498 5498 5498 5497 5497 5497 5496 5496 5495 5495 5495 5494 5494 5494 5494 5495 5494 5493 5491 5490 5488 5486 5483 5480 5477 5474 5471 5467 5464
5478 5480 5482 5483 5484 5485 5485 5486 5487 5487 5489 5490 5490 5491 5491 5491 5491 5491 5490 5490 5489 5489 5489 5488 5488 5486 5485 5484 5483 5482 5482 5481 5480 5478 5476 5475 5472 5470 5468 5465 5461 5457 5454 5450
Wind_Speed
39 38 38 38 37 38 39 40 40 39 39 38 38 37 42 48 50 52 52 52 54 54 55 55 53 53 53 52 50 48 48 49 49 48 46 45 43 42 41 40 40 40 41 44
38 37 37 38 38 39 39 38 37 37 37 39 39 41 46 48 50 50 49 49 49 47 47 47 49 51 52 53 52 52 48 47 46 45 44 43 40 38 36 35 35 35 34 35
38 38 38 39 39 38 36 35 35 36 37 40 42 45 48 46 46 44 43 44 46 46 43 41 40 41 43 45 47 48 46 44 43 41 39 36 33 30 28 29 30 31 32 36
39 39 39 39 39 35 34 34 35 36 39 41 44 44 43 43 43 40 39 37 36 37 37 36 35 36 35 37 40 41 41 41 40 34 31 29 28 27 28 28 28 31 36 37
41 40 39 39 33 34 33 34 36 38 39 40 37 40 42 38 35 37 36 35 39 41 38 35 34 34 34 35 37 37 34 31 28 28 24 23 24 25 24 24 28 32 35 39
42 40 37 30 32 32 34 35 37 37 37 35 35 35 37 35 34 34 36 39 36 34 29 31 32 32 33 35 32 29 26 26 25 24 23 19 19 21 22 24 28 30 33 35
37 33 28 30 32 33 34 35 36 36 33 32 33 35 32 35 35 36 39 33 31 31 28 27 29 30 28 27 27 26 24 23 23 20 17 15 18 19 19 22 26 27 27 29
31 29 30 30 32 33 35 33 33 34 31 31 32 35 33 34 35 40 34 30 27 27 24 23 25 25 18 16 16 17 18 18 18 19 16 18 17 18 19 22 21 21 24 27
33 33 31 31 32 33 31 31 32 31 28 31 32 30 31 33 36 36 27 22 16 15 17 15 14 15 13 13 15 17 17 18 18 17 16 15 16 15 17 16 18 22 25 27
37 36 33 32 31 31 32 31 30 27 29 30 29 28 29 32 33 31 23 18 12 11 11 10 10 10 11 14 15 16 16 15 14 13 13 12 12 15 14 14 18 21 24 26
36 33 30 30 29 31 31 30 28 27 27 30 30 28 31 29 33 29 21 15 11 11 11 10 11 11 10 10 11 12 12 13 12 12 11 12 13 13 12 13 16 18 21 23
35 33 30 29 32 31 31 29 26 27 27 29 29 28 26 30 31 26 18 12 13 13 14 13 10 9 9 10 11 13 14 12 11 12 13 14 11 9 10 14 15 18 20 24
32 33 30 31 31 29 29 28 25 27 27 26 29 27 31 29 30 23 17 15 15 13 13 12 10 9 9 10 13 14 13 12 13 12 12 10 8 9 11 14 16 19 22 24
32 32 33 31 31 31 30 27 28 28 26 28 24 29 31 29 28 20 17 18 18 15 14 12 11 11 11 13 14 14 13 13 11 11 11 9 9 10 11 14 17 21 24 26
33 32 30 30 32 31 29 28 28 28 27 27 26 27 30 28 25 18 20 19 21 18 17 15 14 15 15 16 16 15 14 14 15 14 12 11 11 10 12 17 20 22 23 26
32 32 31 31 31 31 30 28 27 26 26 27 27 25 29 26 22 20 21 20 22 21 19 19 18 18 18 18 18 18 16 15 15 13 11 11 10 10 14 16 18 21 24 27
35 33 29 31 31 33 33 27 29 29 29 29 27 27 26 25 22 19 25 22 24 23 22 22 20 21 21 22 22 20 19 18 17 15 13 13 13 13 15 19 21 23 26 28
29 30 31 30 30 36 31 29 29 31 32 30 27 25 26 25 23 19 25 25 24 26 25 25 24 24 25 26 25 24 23 22 21 18 17 17 18 18 19 21 24 26 28 30
30 31 31 33 31 33 33 30 30 32 30 29 29 27 26 25 25 23 26 27 28 28 29 28 29 29 29 29 29 28 27 26 26 22 22 23 23 23 24 25 27 29 30 32
32 33 33 35 35 35 35 31 32 33 31 30 30 27 27 25 25 26 25 29 29 31 32 32 33 34 34 33 33 33 32 32 30 29 28 28 30 30 31 31 33 33 34 34
31 32 34 36 37 36 33 33 33 32 31 31 30 28 27 26 26 27 27 29 31 31 33 37 37 38 38 38 37 38 38 37 36 36 36 35 36 37 38 38 39 40 40 40
29 32 33 35 36 35 33 32 32 32 31 31 30 28 28 28 27 27 27 29 32 32 32 36 40 41 41 41 42 42 42 43 42 42 43 43 43 43 44 45 45 45 45 45
29 30 31 31 32 33 33 32 32 31 31 31 29 29 27 28 28 28 28 29 30 34 34 34 39 43 44 44 44 45 46 46 47 47 48 49 49 49 50 50 50 50 50 51
28 30 29 30 30 31 32 32 32 31 30 30 29 28 26 26 27 27 27 28 28 28 33 37 36 37 43 46 47 47 48 49 50 50 51 52 53 54 54 54 53 52 53 53
30 30 30 30 30 31 31 31 31 30 29 29 28 26 26 25 26 26 26 26 26 27 27 27 29 35 39 39 41 43 46 49 50 50 51 51 51 51 51 51 50 48 48 49
29 30 29 28 28 28 28 29 27 27 26 26 26 25 26 26 26 26 25 25 25 25 26 28 27 26 26 28 32 36 37 38 40 39 38 39 41 42 42 42 41 42 42 43
Wind_Direction
268 269 268 271 270 272 274 277 279 280 280 280 283 288 289 290 291 290 288 284 280 276 276 275 273 269 268 268 268 268 266 266 266 267 270 272 273 275 275 273 272 271 272 273
267 268 268 269 270 272 274 276 278 277 280 282 287 290 290 291 291 290 288 287 287 286 283 280 275 271 269 268 266 266 266 265 265 266 268 272 274 274 272 270 269 268 272 278
267 268 266 268 270 271 273 273 274 276 281 287 291 292 294 294 293 293 292 289 287 286 285 281 276 271 267 264 264 264 263 263 264 266 269 272 269 267 265 260 263 270 275 284
266 268 267 267 266 269 270 272 276 281 286 291 293 296 298 300 299 298 297 296 291 288 286 280 278 278 275 266 260 261 261 259 263 267 265 259 261 257 255 264 275 282 284 288
263 263 262 262 265 265 268 273 279 284 288 293 295 298 301 303 300 298 292 288 289 286 281 275 272 271 274 270 262 257 257 259 257 255 248 248 249 256 261 275 284 286 288 289
260 261 258 256 259 263 270 276 280 284 291 293 297 299 301 303 302 299 296 295 287 282 279 274 269 269 270 268 263 259 254 248 244 238 240 240 252 261 271 280 287 290 293 294
256 247 250 254 260 267 272 277 281 286 289 295 297 298 306 305 308 308 306 295 282 272 271 272 270 273 280 266 257 250 241 238 234 231 222 238 261 267 274 286 290 292 295 301
243 244 247 256 264 269 273 276 280 285 291 294 299 303 308 310 310 316 309 297 284 276 271 277 278 273 268 257 248 240 232 231 222 218 229 250 264 270 280 284 289 297 303 309
250 247 250 254 262 269 271 272 279 282 287 292 297 301 309 313 317 319 313 303 291 284 278 273 275 253 237 250 242 239 231 216 214 228 240 254 265 272 275 287 303 305 307 309
249 250 250 257 263 266 267 272 277 278 285 292 299 302 308 313 317 317 312 300 284 279 271 252 262 256 251 247 237 227 216 215 220 228 243 254 261 268 283 301 307 308 313 315
248 250 252 257 260 260 265 271 274 276 283 289 297 302 306 312 317 313 302 285 266 264 270 258 247 245 253 241 221 214 210 201 208 227 242 257 263 277 297 312 317 322 322 327
248 248 250 252 256 259 266 271 268 274 280 285 291 302 308 310 313 307 288 275 276 256 249 260 245 247 238 211 204 196 192 206 221 236 250 257 263 282 302 315 323 326 331 332
242 250 250 251 255 263 267 266 267 271 278 286 287 303 302 305 312 299 268 256 264 248 247 236 235 234 219 206 201 202 214 226 239 247 247 249 270 290 311 323 328 332 336 336
235 240 245 253 259 261 265 265 267 269 274 275 291 293 299 304 309 285 251 250 256 249 240 236 235 227 230 215 209 218 225 230 231 240 246 259 276 289 305 314 321 322 324 326
233 237 244 251 256 260 261 261 264 269 269 275 283 292 293 303 307 273 255 253 246 243 238 239 237 229 220 217 222 225 231 243 254 243 245 259 267 290 308 309 312 316 319 320
234 240 246 253 258 261 260 262 263 264 267 274 279 289 294 297 303 262 260 256 243 241 240 242 235 230 222 226 227 230 239 245 241 238 244 258 276 297 303 306 315 320 322 323
237 243 248 252 259 261 258 263 265 268 270 272 278 285 290 294 293 261 259 258 245 241 242 243 235 231 230 229 229 234 240 239 239 245 253 266 278 291 298 306 315 318 319 319
245 248 251 254 253 256 266 267 266 268 270 273 277 281 284 286 285 276 257 254 250 242 240 244 238 234 232 231 233 235 239 241 245 251 262 269 279 288 295 300 307 310 314 316
247 253 257 258 257 261 263 267 266 268 270 271 273 275 279 282 282 279 254 253 256 246 242 241 240 237 236 236 238 241 242 246 251 256 267 272 278 285 290 296 301 307 312 312
249 252 255 258 259 259 262 266 267 268 269 271 272 273 276 280 280 280 269 254 253 252 246 244 243 241 241 240 244 247 249 252 257 263 268 275 281 284 289 295 298 302 306 309
256 259 259 259 260 260 264 266 265 266 267 268 269 272 275 277 277 277 276 265 256 256 252 246 246 246 246 246 247 250 254 258 262 265 270 275 279 284 289 292 295 298 301 304
252 254 256 257 261 262 261 263 263 263 263 265 268 271 273 276 277 274 274 276 265 258 261 253 248 250 252 252 253 255 257 261 265 268 272 276 280 283 286 290 293 294 296 299
257 257 258 257 258 260 262 261 261 262 262 264 267 269 271 274 277 277 275 273 274 265 262 262 256 255 256 258 259 261 263 266 269 271 274 278 280 283 286 289 291 292 294 296
255 255 256 257 258 260 261 261 260 260 260 262 264 266 270 273 276 276 273 272 275 276 268 261 263 263 261 262 263 264 266 269 271 274 276 278 281 284 286 287 288 289 290 291
253 257 257 258 259 257 258 257 258 260 260 261 263 266 269 271 274 277 279 274 271 275 277 275 274 270 267 269 270 270 270 271 273 276 278 280 283 286 288 291 292 292 292 291
256 258 259 260 260 259 257 258 258 257 258 259 262 266 267 269 270 273 279 281 277 275 275 276 279 284 280 276 276 276 276 276 276 279 281 283 286 287 289 290 292 294 294 294